Regional Weather Roundup
Issued by NWS

Home | Current Version | Previous Version | Text Only | Print | Product List | Glossary Off
Versions: 1 2 3 4 5 6 7 8 9 10 11 12 13 14 15 16 17 18 19 20 21 22 23 24 25 26 27 28 29 30 31 32 33 34 35 36 37 38 39 40 41 42 43 44 45 46 47 48 49 50

000
ASUS43 KBIS 290210
RWRND

NORTH DAKOTA REGIONAL WEATHER ROUNDUP
NATIONAL WEATHER SERVICE BISMARCK ND
900 PM CDT TUE JUL 28 2015

NOTE: "FAIR" INDICATES FEW OR NO CLOUDS BELOW 12,000 FEET WITH NO
SIGNIFICANT WEATHER AND/OR OBSTRUCTIONS TO VISIBILITY.


NDZ001>003-009>011-017-290300-
NORTHWEST NORTH DAKOTA

CITY           SKY/WX    TMP DP  RH WIND       PRES   REMARKS
WILLISTON      LGT RAIN  57  50  77 W29G41    29.85R
MINOT          LGT RAIN  58  54  86 W29G43    29.54R FOG
MINOT AFB      CLOUDY    60  59  97 W37G54    29.51R
$$

NDZ018>021-031>035-040>046-290300-
SOUTHWEST NORTH DAKOTA

CITY           SKY/WX    TMP DP  RH WIND       PRES   REMARKS
BISMARCK       CLEAR     66  46  48 W30G52    29.85R
DICKINSON      PTCLDY    63  46  54 NW18G26   29.91R
GARRISON         N/A     56  52  86 W44G62    29.71R
HETTINGER ARPT CLEAR     64  41  42 W16       30.00R
$$

NDZ004>008-012>016-024-026-027-054-290300-
NORTHEAST NORTH DAKOTA

CITY           SKY/WX    TMP DP  RH WIND       PRES   REMARKS
GRAND FORKS    PTCLDY    68  51  54 SW25G36   29.60F
GRND FRKS AFB  PTCLDY    68  51  55 SW21G31   29.60F
DEVILS LAKE    CLOUDY    64  48  55 W43G53    29.52F
$$

NDZ022-023-025-028>030-036>039-047>053-290300-
SOUTHEAST NORTH DAKOTA

CITY           SKY/WX    TMP DP  RH WIND       PRES   REMARKS
FARGO          CLEAR     72  50  45 SW21G30   29.75R
JAMESTOWN      PTCLDY    67  47  48 W35G46    29.75S
$$



USA.gov is the U.S. government's official web portal to all federal, state and local government web resources and services.